This demonstration page uses our WeatherBlox Daily Observations layout. Learn more.

Left ArrowRight Arrow

39.08367, -84.50855

Hourly Observations for April 14, 2015

Temp ( °F °C ) Dew Point ( °F °C ) Humidity (%) Winds ( mph kmh ) Pressure ( in mb ) Visibility ( mi km ) Precip ( " mm )
12:53 am 00:53 Cloudy 63 17.2 57 13.9 81 81 NE 6 9 30.11 1020 10 16 N/A
1:53 am 01:53 Cloudy 62 16.7 56 13.3 80 80 NNE 9 15 30.11 1020 10 16 N/A
2:24 am 02:24 Cloudy 62 16.7 56 13.3 80 80 NE 12 19 30.09 1019 10 16 N/A
2:33 am 02:33 Cloudy 62 16.7 55 12.8 78 78 NE 16 26 30.09 1019 10 16 N/A
2:53 am 02:53 Cloudy 61 16.1 54 12.2 78 78 NE 13 20 30.12 1020 10 16 N/A
3:53 am 03:53 Cloudy 60 15.6 41 5 50 50 NE 13 20 30.12 1020 10 16 N/A
4:53 am 04:53 Cloudy 59 15 40 4.4 49 49 NNE 9 15 30.12 1020 10 16 N/A
5:53 am 05:53 Cloudy 58 14.4 38 3.3 48 48 NE 10 17 30.11 1020 10 16 N/A
6:53 am 06:53 Cloudy 58 14.4 37 2.8 46 46 NE 14 22 30.12 1020 10 16 N/A
7:53 am 07:53 Mostly Sunny 57 13.9 39 3.9 51 51 ENE 8 13 30.15 1021 10 16 N/A
8:53 am 08:53 Partly Cloudy 58 14.4 37 2.8 46 46 NE 13 20 30.16 1022 10 16 N/A
9:53 am 09:53 Cloudy 57 13.9 39 3.9 51 51 NE 6 9 30.17 1022 10 16 N/A
10:53 am 10:53 Cloudy 58 14.4 39 3.9 50 50 NE 12 19 30.19 1022 10 16 N/A
11:53 am 11:53 Sunny 60 15.6 35 1.7 39 39 NE 18 30 30.18 1022 10 16 N/A
12:53 pm 12:53 Mostly Cloudy 60 15.6 35 1.7 39 39 NNE 14 22 30.19 1022 10 16 N/A
1:53 pm 13:53 Cloudy 59 15 36 2.2 42 42 NE 15 24 30.17 1022 10 16 N/A
2:53 pm 14:53 Mostly Sunny 62 16.7 38 3.3 41 41 NE 15 24 30.14 1021 10 16 N/A
3:53 pm 15:53 Mostly Sunny 62 16.7 36 2.2 38 38 ENE 17 28 30.14 1021 10 16 N/A
4:53 pm 16:53 Partly Cloudy 63 17.2 38 3.3 40 40 NE 10 17 30.13 1020 10 16 N/A
5:53 pm 17:53 Sunny 62 16.7 38 3.3 41 41 ENE 10 17 30.14 1021 10 16 N/A
6:53 pm 18:53 Sunny 61 16.1 38 3.3 43 43 NNE 12 19 30.14 1021 10 16 N/A
7:53 pm 19:53 Sunny 58 14.4 38 3.3 48 48 NNE 12 19 30.14 1021 10 16 N/A
8:53 pm 20:53 Clear 57 13.9 38 3.3 49 49 NNE 6 9 30.16 1021 10 16 N/A
9:53 pm 21:53 Clear 52 11.1 44 6.7 75 75 NE 3 6 30.18 1022 10 16 N/A
10:53 pm 22:53 Clear 50 10 43 6.1 77 77 N N/A 30.19 1023 10 16 N/A
11:53 pm 23:53 Clear 50 10 43 6.1 77 77 N N/A 30.19 1022 10 16 N/A

Powered by AerisWeather